Location: Mascot Post Office (historical)
(40.2645°N, 99.5462°W)
Time: 02:08:12
(UTC+00:00)

Atlas Centaur 2 - Pass Details

Date: 14 July 2020
Orbit: 459 x 1310 km, 30.4° (Epoch: 14 August)

Event Time Altitude Azimuth Distance (km) Brightness Sun altitude
Rises 02:47:35 0° 251° (WSW) 2,759 5.4 -7.2°
Reaches altitude 10° 02:51:00 10° 221° (SW) 2,019 4.3 -7.8°
Maximum altitude 02:52:57 12° 196° (SSW) 1,954 3.9 -8.0°
Drops below altitude 10° 02:55:05 10° 171° (S) 2,228 4.0 -8.4°
Enters shadow 02:56:44 - 158° (SSE) 2,615 4.2 -8.6°
